Terminal Aerodrome Forecast
Issued by NWS Mt. Holly, NJ

Home | Current Version | Previous Version | Text Only | Print | Product List | Glossary On
Versions: 1 2 3 4 5 6 7 8 9 10 11 12 13 14 15 16 17
000
FTUS41 KPHI 310500
TAFACY
TAF
KACY 310520Z 3106/0106 30018G30KT P6SM SKC
     FM311700 30016G28KT P6SM SKC
     FM312200 29010KT P6SM FEW040=

USA.gov is the U.S. government's official web portal to all federal, state and local government web resources and services.